User: anonymous   Login
Location: Caltech
(34.1382°N, 118.1253°W)
Time: 03:03:52
(UTC-07:00)
Language:

RS-15 - Orbit

View from above orbital plane
View from above orbital plane
View from above satellite
View from above satellite

Ground track
Ground track

The orbit data is extracted from the following two-line orbital elements,

1 23439U 94085A   17232.23647831 -.00000042 +00000-0 +14643-4 0  9995
2 23439 064.8162 115.5759 0165915 234.7761 238.3788 11.27566363932632
Epoch (UTC): 20 August 2017 05:40:31
Eccentricity: 0.0165915
inclination: 64.8162°
perigee height: 1883 km
apogee height: 2162 km
right ascension of ascending node: 115.5759°
argument of perigee: 234.7761°
revolutions per day: 11.27566363
mean anomaly at epoch: 238.3788°
orbit number at epoch: 93263

The dashed part of the orbit path shows where the satellite is in the earth's shadow,  

DLR